"Pseudo-MPEC" for P20OVhH

Created 2019 Jun 19 17:07:43 UT using Find_Orb

Click here for an explanation of pseudo-MPECs

 
 Astrometry: 
     P20OVhH  C2019 06 10I=6ky$ov0`YeqaBix/Q)kcya1v6;s9Y/+2g.x;A=f(=m$-E48OY!F52
     P20OVhH  C2019 06 10(Ag$1(RJ;;/M]d5[%0RE8Jl=18+IAd$I_k(JNZOiO^q2H`G'KM=JF52
     P20OVhH  C2019 06 10?451?^R^bVw.^H6rwY![P4^k5?pil3mfH(Qgf^%)n#7,K'$H`Y]kF52
     P20OVhH KC2019 06 11Gu\];RLae@'3HYUiqZre]cqbjOdP.AVwWm8cs)m[pp:%_1:1vwNGZ84
     P20OVhH KC2019 06 11:rv$+Zx;XUbJs[$V)`Ly,8fF#wQd7I`pKEP#:bY3,87bAwhtRt2rK88
     P20OVhH KC2019 06 11@54r@R/imYnl0r-r+/_k!wSBNuJ(xD=g]sf_OYI!@v`)[Q+X^M-3K88
     P20OVhH KC2019 06 11Dg]L@(D-D[JbGdkZ3F/`)E7hWOp:,@L\d3ZFm_b:I-N6SNm2E^TVK88
     P20OVhH KC2019 06 113Ju)[)_ae#t#A_?\.L0DY9xL%C0Yw^O'0d;q*sE*vfipQvgO0ZN\Z84
     P20OVhH KC2019 06 11_KGr%x0TYgdD(5(U42,!U#,xD5.$cE=5Fj:xoXA3V$#^Y7Jel%gJZ84
     P20OVhH KC2019 06 111@nF(sd'jS'Zm58V*nZ-RnxYk[!;Fu/F#\0_Mcfa1lP'*a1Rur^iH21
     P20OVhH KC2019 06 11q:#uXWAS@h0#Ro*6E'(P.g7@?2lXV=rYYnk6iD11.hd$rZnqavGoH21
     P20OVhH KC2019 06 11=8i7%6o[SAn35_#Y]4jkTIN4=OnGEe:h?$KTXmE\aH;x7`C9:mB)H21
     P20OVhH  C2019 06 11.37008 21 19 41.63 +14 51 53.6    ~6B9M 18.7 GVNEOCPI52
     P20OVhH  C2019 06 11.37312 21 19 45.57 +14 52 09.5    ~6B9M 19.4 GVNEOCPI52
     P20OVhH  C2019 06 11.37332 21 19 45.81 +14 52 10.6    ~6B9M 19.0 GVNEOCPI52
     P20OVhH 1C2019 06 11dBXXCWD]$06s2[/M^%KueohYb0RO_v,]3`]jecU637`O%2Jj[8#w658
     P20OVhH 1C2019 06 11I@#Uob+!y?]c'c6kv'k7VpIZ:^s=[v]^+R!7.0J7s+l6A]g#N$Yx658
     P20OVhH 1C2019 06 11M:8eg/F=m^HE99-:#W+Pwg84T;bXN:_BAstrometry,J/JL/bO.h658
     P20OVhH 1C2019 06 11pFM!vDS=\gKQ*)%DBHQF1mJ8V3gd5/Z+Ub`,,9IB'us1XR/UT`!f658
     P20OVhH 1C2019 06 11-$c9E((TbgdJMpVAsxHK3'$v6X]kxDq.d!jlVR3tW;j3\=f^f7KG658
     P20OVhH 1C2019 06 11oG]N^NL)F)kd*[1:gDhD_22uPxYi^=9`gD(m'(PLm5a$))HrMb*_658
     P20OVhH KC2019 06 11]Z7qP[UGtoG;:PbuX9%(c)1lR)tn43QH%HS`X4M)A,kq^sDf6Mx]V01
     P20OVhH KC2019 06 11Y[WMID%rI'%c9YwA[ZgL3,d`P+QW)4kEhiw:mYsVrR.m4h0Unwa3V01
     P20OVhH KC2019 06 11^ki#!Wn?V2ayd!lCtIoM1c;yMpHJ2[bWyQZb(so[Y\0V13K8DhSxV01
     P20OVhH KC2019 06 11;IF@5[(m44'hv0a;%BY^YCnDW?\Ub5SW8Sw(hu:jjfR+kN)-wQMqV01
     P20OVhH KC2019 06 11g(Y66oC4w2nLhb(YRoe8`m0jULA`y8N(q*rby;PP'DVJ`_)l.H*HK88
     P20OVhH KC2019 06 11;;8pgZWgr_IDiu,C6\MrZ*B@C%2Q'qyB2lmS$tRcwv,r\Ocr#[RaK88
     P20OVhH KC2019 06 11WL*\9[=049v,)`d$9'!5htL=]Dtrw5O#?epT(ZCAVI(:0FI(s8pGK88
     P20OVhH pC2019 06 12dg^cbV:w_=q$4%`nH\%rd?\d7redacted;_FdQ2p*pYF'swfjHEXL01
     P20OVhH KC2019 06 12N+'vg`H+Y^ppCZO3FEqqXqx+nuqc.Eo5u\ODh.(8XTlUA9T802/bL01
     P20OVhH KC2019 06 12=X8OjN_iIumcP!^V0Qe+D?D.Q-pnev`n@aBYPlUI9Oithy^?di=)L01
     P20OVhH KC2019 06 12g%Zuu(:Ki/l*+K4QZ7kSg4MUheNRTE6BJJ=yS1$v@pZvHW0`c'k6L01
     P20OVhH IC2019 06 126Yclick!de0c!RgIf3ZjcU;C[kEl!+oe2:UHs1f8A)nsptv\aV'JL01
     P20OVhH KC2019 06 12evGhereglmhx-dVcg)t-A;7ih-cdDJt%N:!u:hha0@W^g[Kp/3lJV01
     P20OVhH KC2019 06 12J5l1y0/#^4Rx5'mWITBC2`(yu-J*@p.D+V^deHTH!iOn!yCvh]$BV01
     P20OVhH KC2019 06 12Xfl,JQ!$a`hjZ$kJS9%,pH)^_aZqM34B]?Da^),:sg?kK2p2\r;AV01
     P20OVhH KC2019 06 121VU(*\;r$R7m=:vITIjLB5xU_07W%2B[h$?J?7(KN_rESHI.r94:V01
     P20OVhH KC2019 06 12OfI4v;FUMBkoGds@VVl^o*HgS0_FESO1#br=y`boaMB()xNgmlqYV01
     P20OVhH  C2019 06 12.45688 21 45 58.48 +16 24 26.6    ~6CBM 19.5 GVNEOCPI52
     P20OVhH  C2019 06 12.45719 21 45 58.97 +16 24 27.4    ~6CBM 19.5 GVNEOCPI52
     P20OVhH  C2019 06 12.45749 21 45 59.43 +16 24 29.9    ~6CBM 19.6 GVNEOCPI52
     P20OVhH  C2019 06 12.45779 21 45 59.91 +16 24 31.1    ~6CBM 19.1 GVNEOCPI52
     P20OVhH  C2019 06 13.44554 22 13 52.60 +17 47 25.4    ~6DB7 19.6 GVNEOCPI52
     P20OVhH  C2019 06 13.44578 22 13 52.99 +17 47 26.7    ~6DB7 19.2 GVNEOCPI52
     P20OVhH  C2019 06 13.44602 22 13 53.45 +17 47 27.0    ~6DB7       VNEOCPI52
     P20OVhH  C2019 06 13.44627 22 13 53.81 +17 47 28.9    ~6DB7       VNEOCPI52
     P20OVhH KC2019 06 14$r%K.]]EUDT_%#RF(5D0lWNbjRhc1:C@QFP[EFi^Km^W9gl7QI).A17
     P20OVhH KC2019 06 14wEy)4;(_53?5for=Zcii6#FODmgexplanationuJ^9p]B^S7@lL-A17
     P20OVhH KC2019 06 141bJ1v3T;kr#tppaE2f)%\@GtM9n?e!P'K;$8Jso;Eri;BQ:.=D3SA17
     P20OVhH KC2019 06 144'lMu19vt!Wxm'Kbvp4fe0qhJQuBfh9w,Mp[(M3u/_8_UKu7v!UdH21
     P20OVhH KC2019 06 14%a_GM;6@lj'?:!AOQP4i6DI;?`ltp0yWJ^ejXXZ9QNU-p+^FsM6=H21
     P20OVhH KC2019 06 14P,67R0-bc2dRTZ0iN;=)H3h`4bg$Y0JUbZ%DZ7b\ipS_xI#(Kjp2H21
     P20OVhH  C2019 06 15.45056 23 21 22.24 +20 01 22.6    ~6FBb 20.0 GVNEOCPI52
     P20OVhH  C2019 06 15.45113 23 21 23.41 +20 01 24.0    ~6FBb 19.8 GVNEOCPI52
     P20OVhH  C2019 06 15.45228 23 21 25.95 +20 01 27.6    ~6FBb 19.9 GVNEOCPI52

Station data:
(658) Dominion Astrophysical Observatory  (N48.519987 W123.417000)
   Canada/BritColumbia. 1.82-m Plaskett reflector.
(A17) Guidestar Observatory, Weinheim  (N49.545393 E8.681520)  Germany.
(F52) Pan-STARRS 2, Haleakala  (N20.707384 W156.255910)  US/Hawaii. 1.8-m
   Ritchey-Chrétien + CCD.
(H21) Astronomical Research Observatory, Westfield  (N39.483057 W87.968270)
   US/Illinois. 0.76-m f/3.0 astrograph + CCD.
(I52) Steward Observatory, Mt. Lemmon Station  (N32.442547 W110.788920)
   US/Arizona.  Observers T. A. Pruyne, B. M. Africano, E. J. Christensen, G.
   A. Farneth, D. C. Fuls, A. R. Gibbs, A. D. Grauer, H. Groeller, J. A.
   Johnson, R. A. Kowalski, S. M. Larson, G. J. Leonard, R. L. Seaman, F. C.
   Shelly. 1.0-m reflector + CCD.
(K88) GINOP-KHK, Piszkéstető  (N47.917622 E19.893600)  Hungary.  Observer K.
   Sárneczky. 0.60-m Schmidt + CCD.
(L01) Višnjan Observatory, Tičan  (N45.290900 E13.749300)  Croatia.
   Observers K. Korlević, E. Pettarin. Measurer E. Pettarin. 1.0-m f/2.9
   reflector + CCD.
(V01) Mountainville Observatory, Alpine  (N40.448904 W111.760890)  US/Utah.
(Z84) Calar Alto-Schmidt  (N37.224049 W2.548210)  Spain.

Orbital elements:  P20OVhH
   Perihelion 2019 Jul 31.755133 +/- 0.202 TT = 18:07:23 (JD 2458696.255133)
Epoch 2019 Jun 15.0 TT = JDT 2458649.5   Earth MOID: 0.0361   Ve: 0.0571
M 346.86000283 +/- 0.47             (J2000 ecliptic)          AutoNEOCP
n   0.28103860 +/- 0.00901          Peri.  260.51466 +/- 0.12
a   2.30829901 +/- 0.0492           Node    95.87361 +/- 0.042
e   0.7409575 +/- 0.00596           Incl.   16.95597 +/- 0.09
P   3.51                   H 21.9   G  0.15   U  9.6  
q 0.59794742 +/- 0.00102    Q 4.01865060 +/- 0.101
From 55 observations 2019 June 10-15; mean residual 0".63
Residuals in arcseconds: 
190610 F52  .30-  .08+    190611 658  .26+  1.3-    190612 I52  .10-  .04-    
190610 F52  .21-  .07+    190611 658  .62+  .93-    190612 I52  .04+  .83-    
190610 F52  .03-  .21+    190611 V01  .96+  2.3-    190612 I52  .02-  .12+    
190611 Z84  .08+  .40+    190611 V01  .16+  .85+    190612 I52  .20+  .23-    
190611 K88  .07-  .58+    190611 V01  .06+  .09+    190613 I52  .24+  .23-    
190611 K88  .68-  .82+    190611 V01  .10+  .12+    190613 I52  .29-  .11-    
190611 K88  .00   1.2+    190611 K88  .64-  .61+    190613 I52  .17+  .99-    
190611 Z84  .20+  .03-    190611 K88  .04-  .79+    190613 I52  1.0-  .32-    
190611 Z84  .05-  .26+    190611 K88  .05-  .56+    190614 A17  1.1+  .63+    
190611 H21  .13-  .36+    190612 L01  .06-  .01+    190614 A17  1.2+  .29+    
190611 H21  .34-  .50+    190612 L01  .21+  .24+    190614 A17  .51-  .93-    
190611 H21  .19-  .77+    190612 L01  .12-  .35+    190614 H21  .06-  .18-    
190611 I52  .52+  .35-    190612 L01  .39-  .04+    190614 H21  .24-  .35+    
190611 I52  .23-  .09+    190612 L01  .16-  .11+    190614 H21  .86-  1.4+    
190611 I52  .56-  .17+    190612 V01  .05+  .05+    190615 I52  .37+  .17-    
190611 658  .65+  1.8-    190612 V01  .24+  .29+    190615 I52  .53-  .41-    
190611 658  .68+  1.7-    190612 V01  .03-  .17+    190615 I52  .18+  .12-    
190611 658  .32+  1.7-    190612 V01  1.0-  1.1+    
190611 658  .62+  1.4-    190612 V01  .03+  .07-    

Ephemerides (geocentric):
Date (UTC) HH   RA              Dec         delta   r     elong  mag " sig PA
---- -- -- --  -------------   -----------  ------ ------ -----  --- ---- ---
2019 06 19 17  01 51 46.694   +19 11 14.21  .10896 .95849  55.4 21.8 1.03 124
2019 06 19 18  01 53 00.669   +19 08 51.23  .10924 .95797  55.2 21.8 1.04 124
2019 06 19 19  01 54 14.236   +19 06 27.20  .10952 .95745  55.0 21.8 1.05 124
2019 06 19 20  01 55 27.394   +19 04 02.15  .10981 .95694  54.7 21.8 1.06 124
2019 06 19 21  01 56 40.143   +19 01 36.12  .11010 .95642  54.5 21?? 1.06 124
2019 06 19 22  01 57 52.483   +18 59 09.14  .11039 .95590  54.3 21?? 1.07 124
2019 06 19 23  01 59 04.412   +18 56 41.25  .11069 .95539  54.1 21?? 1.08 124
2019 06 20 00  02 00 15.932   +18 54 12.47  .11099 .95487  53.9 21?? 1.09 124
2019 06 20 01  02 01 27.041   +18 51 42.84  .11129 .95435  53.6 21?? 1.10 124
2019 06 20 02  02 02 37.740   +18 49 12.39  .11159 .95384  53.4 22?? 1.11 124
2019 06 20 03  02 03 48.029   +18 46 41.16  .11190 .95332  53.2 22?? 1.12 123
2019 06 20 04  02 04 57.907   +18 44 09.17  .11221 .95280  53.0 22?? 1.13 123
2019 06 20 05  02 06 07.375   +18 41 36.46  .11252 .95229  52.8 22?? 1.14 123
2019 06 20 06  02 07 16.433   +18 39 03.06  .11284 .95177  52.6 22?? 1.15 123
2019 06 20 07  02 08 25.082   +18 36 28.99  .11316 .95125  52.4 22?? 1.16 123
2019 06 20 08  02 09 33.322   +18 33 54.30  .11348 .95074  52.1 22?? 1.17 123
2019 06 20 09  02 10 41.153   +18 31 19.00  .11380 .95022  51.9 22?? 1.18 123
2019 06 20 10  02 11 48.576   +18 28 43.13  .11412 .94970  51.7 22?? 1.19 123
2019 06 20 11  02 12 55.592   +18 26 06.72  .11445 .94919  51.5 22?? 1.20 123
2019 06 20 12  02 14 02.201   +18 23 29.79  .11478 .94867  51.3 22?? 1.21 123
2019 06 20 13  02 15 08.405   +18 20 52.37  .11511 .94816  51.1 22?? 1.22 123
2019 06 20 14  02 16 14.203   +18 18 14.50  .11545 .94764  50.9 22?? 1.23 123
2019 06 20 15  02 17 19.597   +18 15 36.19  .11579 .94713  50.7 22?? 1.24 123
2019 06 20 16  02 18 24.588   +18 12 57.47  .11613 .94661  50.5 22?? 1.25 123
2019 06 20 17  02 19 29.176   +18 10 18.37  .11647 .94609  50.3 22?? 1.26 123
2019 06 20 18  02 20 33.363   +18 07 38.92  .11681 .94558  50.1 22?? 1.27 123
2019 06 20 19  02 21 37.151   +18 04 59.14  .11716 .94506  50.0 22?? 1.28 123
2019 06 20 20  02 22 40.539   +18 02 19.05  .11751 .94455  49.8 22?? 1.29 123
2019 06 20 21  02 23 43.530   +17 59 38.69  .11786 .94403  49.6 22?? 1.31 122
2019 06 20 22  02 24 46.125   +17 56 58.06  .11821 .94352  49.4 22?? 1.32 122
2019 06 20 23  02 25 48.324   +17 54 17.21  .11857 .94300  49.2 22?? 1.33 122
2019 06 21 00  02 26 50.130   +17 51 36.14  .11893 .94249  49.0 22?? 1.34 122
2019 06 21 01  02 27 51.543   +17 48 54.89  .11929 .94197  48.8 22?? 1.35 122
2019 06 21 02  02 28 52.566   +17 46 13.47  .11965 .94145  48.7 22?? 1.36 122
2019 06 21 03  02 29 53.200   +17 43 31.91  .12002 .94094  48.5 22?? 1.37 122
2019 06 21 04  02 30 53.446   +17 40 50.23  .12039 .94042  48.3 22?? 1.38 122
2019 06 21 05  02 31 53.305   +17 38 08.45  .12076 .93991  48.1 22?? 1.39 122
2019 06 21 06  02 32 52.780   +17 35 26.59  .12113 .93939  47.9 22?? 1.41 122
2019 06 21 07  02 33 51.873   +17 32 44.66  .12150 .93888  47.8 22?? 1.42 122
2019 06 21 08  02 34 50.584   +17 30 02.70  .12188 .93836  47.6 22?? 1.43 122
2019 06 21 09  02 35 48.915   +17 27 20.72  .12226 .93785  47.4 22?? 1.44 122
2019 06 21 10  02 36 46.869   +17 24 38.73  .12264 .93734  47.3 22?? 1.45 121
2019 06 21 11  02 37 44.447   +17 21 56.76  .12302 .93682  47.1 22?? 1.46 121
2019 06 21 12  02 38 41.651   +17 19 14.82  .12340 .93631  46.9 22?? 1.48 121
2019 06 21 13  02 39 38.482   +17 16 32.94  .12379 .93579  46.8 22?? 1.49 121
2019 06 21 14  02 40 34.943   +17 13 51.12  .12418 .93528  46.6 22?? 1.50 121
2019 06 21 15  02 41 31.036   +17 11 09.39  .12457 .93476  46.4 22?? 1.51 121
2019 06 21 16  02 42 26.762   +17 08 27.77  .12496 .93425  46.3 22?? 1.52 121